This is the latest recevied weather packets stored in our database for station/object K0APR. If no packets are shown the sender has not sent any weather packets the latest 10 day(s).
| Time | Temp. | Humidity | Pressure | Rain* | Wind** | Luminosity | Snow |
|---|---|---|---|---|---|---|---|
| 1777661157 | 8.89° C | 51% | 1019.6 hPa | 0 mm | - | 789 W/m² | - |
| 1777660852 | 8.89° C | 49% | 1020 hPa | 0 mm | - | 238 W/m² | - |
| 1777660549 | 8.89° C | 50% | 1020 hPa | 0 mm | - | 345 W/m² | - |
| 1777660246 | 9.44° C | 48% | 1020 hPa | 0 mm | - | 295 W/m² | - |
| 1777659942 | 8.89° C | 50% | 1020 hPa | 0 mm | - | 727 W/m² | - |
| 1777659640 | 8.89° C | 51% | 1019.6 hPa | 0 mm | - | 319 W/m² | - |
| 1777659337 | 8.33° C | 51% | 1019.6 hPa | 0 mm | - | 288 W/m² | - |
| 1777659033 | 8.89° C | 51% | 1019.6 hPa | 0 mm | - | 300 W/m² | - |
| 1777658731 | 8.89° C | 52% | 1019.6 hPa | 0 mm | - | 408 W/m² | - |
| 1777658427 | 8.89° C | 50% | 1020 hPa | 0 mm | - | 262 W/m² | - |
| 1777658124 | 8.33° C | 52% | 1020 hPa | 0 mm | - | 327 W/m² | - |
| 1777657821 | 8.89° C | 51% | 1019.6 hPa | 0 mm | - | 475 W/m² | - |
| 1777657518 | 8.33° C | 52% | 1019.6 hPa | 0 mm | - | 269 W/m² | - |
| 1777657216 | 8.89° C | 51% | 1020 hPa | 0 mm | - | 327 W/m² | - |
| 1777656912 | 8.33° C | 49% | 1020 hPa | 0 mm | - | 807 W/m² | - |
| 1777656609 | 8.89° C | 51% | 1020 hPa | 0 mm | - | 287 W/m² | - |
| 1777656304 | 8.33° C | 53% | 1020 hPa | 0 mm | - | 795 W/m² | - |
| 1777656000 | 8.89° C | 52% | 1020 hPa | 0 mm | - | 196 W/m² | - |
| 1777655696 | 8.89° C | 51% | 1020 hPa | 0 mm | - | 571 W/m² | - |
| 1777655393 | 8.89° C | 53% | 1020 hPa | 0 mm | - | 775 W/m² | - |
| 1777655090 | 8.33° C | 51% | 1019.6 hPa | 0 mm | - | 774 W/m² | - |
| 1777654787 | 7.78° C | 54% | 1020 hPa | 0 mm | - | 280 W/m² | - |
| 1777654485 | 8.33° C | 54% | 1020 hPa | 0 mm | - | 215 W/m² | - |
| 1777654183 | 7.78° C | 54% | 1020 hPa | 0 mm | - | 727 W/m² | - |
| 1777653880 | 8.33° C | 55% | 1020 hPa | 0 mm | - | 344 W/m² | - |
* Rain latest hour (hover to see other rain measurements)
** Current wind speed in m/s (hover to see current wind gust speed)